Regional Weather Roundup
Issued by NWS Green Bay, WI

Home | Current Version | Previous Version | Text Only | Print | Product List | Glossary On
Versions: 1 2 3 4 5 6 7 8 9 10 11 12 13 14 15 16 17 18 19 20 21 22 23 24 25 26 27 28 29 30 31 32 33 34 35 36 37 38 39 40 41 42 43 44 45 46 47 48 49 50
000
ASUS43 KGRB 281410
RWRGRB

NORTH-CENTRAL AND NORTHEAST WISCONSIN REGIONAL WEATHER ROUNDUP
NATIONAL WEATHER SERVICE GREEN BAY WI
800 AM CST WED JAN 28 2015

WIZ005-009-010>012-018-019-281500-
NORTH CENTRAL WISCONSIN

CITY           SKY/WX    TMP DP  RH WIND       PRES   REMARKS
IRONWOOD       CLOUDY    25  21  86 S9        30.02S
MANITOWISH WTR CLOUDY    22  22 100 S10       30.06R FOG
ARBOR VITAE    CLOUDY    23  22  93 S8G16     30.08R FOG
EAGLE RIVER    CLOUDY    22  20  90 S8        30.09R FOG
LAND O LAKES   CLOUDY    23  22  96 S8        30.09R FOG
RHINELANDER    CLOUDY    22  20  92 S9        30.10S FOG
PHILLIPS       CLOUDY    22  21  96 SE8       30.06F FOG
ANTIGO         CLOUDY    20  18  92 S12       30.14R WCI   8
TOMAHAWK       CLOUDY    22  21  93 CALM      30.11S FOG
MERRILL        CLOUDY    24  22  93 S9        30.12S FOG
$$

WIZ013-073-281500-
NORTHEAST WISCONSIN

CITY           SKY/WX    TMP DP  RH WIND       PRES   REMARKS
IRON MOUNTAIN  CLOUDY    22  16  78 SE8       30.14S
MARINETTE      PTCLDY    23  18  80 S7        30.22S
OCONTO         MOCLDY    18  17  96 MISG      30.22F
$$

WIZ017-030-035>037-045-281500-
CENTRAL WISCONSIN

CITY           SKY/WX    TMP DP  RH WIND       PRES   REMARKS
MEDFORD        FOG       23  21  93 SE8       30.08F VSB 1
WAUSAU         CLOUDY    24  21  88 S15       30.13S FOG
MOSINEE        CLOUDY    25  23  93 SE10      30.14F FOG
MARSHFIELD     CLOUDY    25  22  88 S9        30.11F FOG
WISC RAPIDS    CLOUDY    25  20  81 S9        30.16S
STEVENS POINT  CLOUDY    23  19  87 S8        30.16F
WAUPACA        MOCLDY    26  20  79 SE6       30.21R
SHAWANO        CLOUDY    26  19  75 CALM      30.21S
CLINTONVILLE   CLOUDY    27  19  74 S7        30.21R
$$

WIZ038-039-048-051-281500-
FOX VALLEY

CITY           SKY/WX    TMP DP  RH WIND       PRES   REMARKS
NWS GREEN BAY  MOCLDY    20  17  88 S5        30.23F
APPLETON       MOCLDY    23  18  80 S9        30.22S
OSHKOSH        MOCLDY    22  17  81 S7        30.22S
FOND DU LAC    MOCLDY    23  17  78 S8        30.22F
$$

WIZ022-050-052-281500-
EAST CENTRAL WISCONSIN

CITY           SKY/WX    TMP DP  RH WIND       PRES   REMARKS
STURGEON BAY   PTCLDY    21  16  79 S7        30.25S
MANITOWOC      PTCLDY    19  16  88 SW5       30.25S
SHEBOYGAN      MOCLDY    20  15  81 CALM      30.24S
$$

LMZ563-521-522-541>543-281500-
LAKESHORE

STATION/POSITION TIME  TEMP    WIND        PRES    VSBY  WAVE
                       AIR SEA DIR/SP/G                  HT/PER
                 (UTC) (F)     (DEG/KT/KT) (MB)    (MI)  (FT/S)
SHEBOYGAN LKSHOR 1400   29     200/ 10/ 12 1025.3F
KEWAUNEE LKSHORE 1400   26     200/  6/  9 1023.0F
TWO RIVERS CG    1400   28 32              1023.9      6   0
NORTHPORT PIER   1400   20     200/  2/  5 1024.0S
SISTER BAY LKSHO 1300   21     150/  6/  7   N/A
STURGEON BAY CG  1300   17     240/  4     1024.6   3 1/2  1
CHAMBERS ISLAND  1400   22     150/  4/  7 1024.0S
MENOMINEE LKSHOR 1400   18     170/  5     1024.2R
$$


USA.gov is the U.S. government's official web portal to all federal, state and local government web resources and services.